Location: Peterborough
(44.3091°N, 78.3197°W)
Time: 01:11:04
(UTC-04:00)

SR - Pass Details

Date: 23 March 2023
Orbit: 581 x 867 km, 66.7° (Epoch: 02 June)

Event Time Altitude Azimuth Distance (km) Brightness Sun altitude
Rises 03:59:52 0° 210° (SSW) 3,028 - -32.4°
Reaches altitude 10° 04:02:16 10° 210° (SSW) 2,073 - -32.1°
Maximum altitude 04:06:55 90° 72° (ENE) 632 - -31.5°
Exits shadow 04:09:01 31° 32° (NNE) 1,085 ? -31.2°
Drops below altitude 10° 04:11:18 10° 32° (NNE) 1,951 ? -30.9°
Sets 04:13:29 0° 32° (NNE) 2,835 ? -30.5°
